Regional Weather Roundup
Issued by NWS

Home | Current Version | Previous Version | Graphics & Text | Print | Product List | Glossary On
Versions: 1 2 3 4 5 6 7 8 9 10 11 12 13 14 15 16 17 18 19 20 21 22 23 24 25 26 27 28 29 30 31 32 33 34 35 36 37 38 39 40 41 42 43 44 45 46 47 48 49 50
988
ASUS43 KLOT 190803
RWRIL

ILLINOIS REGIONAL WEATHER ROUNDUP
NATIONAL WEATHER SERVICE CHICAGO/ROMEOVILLE IL
200 AM CST SUN NOV 19 2017

NOTE: "FAIR" INDICATES FEW OR NO CLOUDS BELOW 12,000 FEET WITH NO
SIGNIFICANT WEATHER AND/OR OBSTRUCTIONS TO VISIBILITY.

* THESE STATIONS ARE NOT UNDER NWS QUALITY CONTROL. THEY ALSO MAY NOT
  REPORT WEATHER SUCH AS PRECIPITATION OR FOG.

ILZ001-002-007-009-015-016-024-190900-
NORTHWEST ILLINOIS

CITY           SKY/WX    TMP DP  RH WIND       PRES   REMARKS
MOLINE         CLEAR     28  18  66 W12G23    30.03R WCI  18
STERLING*      CLEAR     28  23  81 NW14        N/A  WCI  17
SAVANNA*       MOCLDY    29  20  70 NW15G26   29.99R WCI  17
$$

ILZ003-004-008-010-011-017-018-190900-
NORTH CENTRAL ILLINOIS

CITY           SKY/WX    TMP DP  RH WIND       PRES   REMARKS
ROCKFORD       MOCLDY    30  21  69 NW15G22   29.95R WCI  19
FREEPORT*      MOCLDY    28  21  74 W20G26    29.96R WCI  15
ROCHELLE*      CLOUDY    31  24  74 NW13      29.94R WCI  21
DE KALB*       CLOUDY    32  26  78 NW13      29.91R WCI  23
PERU*          MOCLDY    30  25  80 W17G23    29.96R WCI  18
$$

ILZ005-006-012>014-019>023-190900-
NORTHEAST ILLINOIS

CITY           SKY/WX    TMP DP  RH WIND       PRES   REMARKS
CHICAGO-OHARE  CLOUDY    35  25  66 NW15      29.88R WCI  25
CHICAGO-MIDWAY CLOUDY    36  26  67 NW17G23   29.88R WCI  26
AURORA         CLOUDY    34  27  75 NW13      29.91R WCI  25
LANSING*       CLOUDY    37  30  76 NW12      29.88R WCI  29
JOLIET*        CLOUDY    37  28  70 NW9G17    29.91R WCI  30
WAUKEGAN       CLOUDY    34  24  67 NW10      29.87R WCI  26
DUPAGE AIRPORT CLOUDY    33  25  72 NW12      29.89R WCI  24
KANKAKEE*      CLOUDY    36  28  74 NW13G18   29.91R WCI  27
WHEELING       CLOUDY    35  24  64 NW15      29.90R WCI  25
MORRIS*        CLOUDY    35  30  82 NW12G18   29.91R WCI  26
ROMEOVILLE*    CLOUDY    34  27  75 NW10      29.89R WCI  26
NORTHERLY ISL    N/A     37  26  65 W10         N/A  WCI  30
$$

LMZ740>746-190900-
SOUTHERN LAKE MICHIGAN

STATION/POSITION SKY/WX   TEMP    WIND        PRES    VSBY  WAVE
                          AIR SEA DIR/SP/G                  HT/PER
                          (F)     (DEG/KT/KT) (MB)    (MI)  (FT/S)
SOUTHERN BUOY              39 49  340/ 21/ 27 1009.0          8/ 8
HARRISON CRIB              37     310/ 22/ 23   N/A
BURNHAM HARBOR             36     290/ 13/ 17   N/A
BURNS HARBOR               40     300/ 16/ 21 1010.8R
MICHIGAN CITY              38     300/ 21/ 24   N/A
$$

ILZ025>027-034>036-040-047-049-050-058-095>099-190900-
WEST-CENTRAL ILLINOIS

CITY           SKY/WX    TMP DP  RH WIND       PRES   REMARKS
QUINCY         PTCLDY    30  22  72 NW12      30.09R WCI  20
GALESBURG*     CLEAR     28  22  81 W15G22    30.04R WCI  16
MACOMB*        CLEAR     28  21  74 NW21G28   30.08R WCI  15
JACKSONVILLE*  CLEAR     31  20  64 NW14G25   30.05S WCI  21
PITTSFIELD*    CLEAR     32  22  67 NW12G17   30.09R WCI  23
$$

ILZ028>032-037-038-041>044-048-051>054-059>061-190900-
CENTRAL ILLINOIS

CITY           SKY/WX    TMP DP  RH WIND       PRES   REMARKS
PONTIAC        CLOUDY    33  32  93 W13G20    29.95R WCI  24
BLOOMINGTON    CLOUDY    32  27  81 NW20      29.96S WCI  20
DECATUR        CLOUDY    33  27  78 NW14G22   30.00R WCI  23
PEORIA         CLEAR     30  23  75 NW10      30.01R WCI  21
LACON*         CLOUDY    31  25  79 NW15G22   29.98R WCI  20
LINCOLN*       CLOUDY    33  28  81 W12       30.00R WCI  24
SPRINGFIELD    CLEAR     32  25  75 NW9       30.03R WCI  24
TAYLORVILLE    CLOUDY    32  25  76 NW9       30.03R WCI  24
$$

ILZ033-039-045-046-055>057-062-063-190900-
EAST-CENTRAL ILLINOIS

CITY           SKY/WX    TMP DP  RH WIND       PRES   REMARKS
CHAMPAIGN      PTCLDY    33  28  81 W16       29.96R WCI  23
DANVILLE*      CLOUDY    33  30  89 W13G20    29.91R WCI  24
RANTOUL*       CLOUDY    34  31  87 W15       29.94S WCI  25
MATTOON        CLOUDY    34  29  82 NW20      29.97R WCI  23
PARIS*         CLEAR     32  30  92 W14       29.97R WCI  22
$$

ILZ079-100>102-190900-
SOUTHWEST ILLINOIS

CITY           SKY/WX    TMP DP  RH WIND       PRES   REMARKS
ALTON          CLEAR     34  21  60 NW17G32   30.07S WCI  23
BELLEVILLE     CLEAR     34  24  65 NW6       30.07R WCI  29
CAHOKIA*       CLEAR     36  22  56 NW14      30.09R WCI  27
SPARTA*        PTCLDY    36  25  65 NW14G21   30.09R WCI  27
$$

ILZ064>066-069>071-074>076-080>082-084>086-088>090-092>094-190900-
SOUTH-CENTRAL ILLINOIS

CITY           SKY/WX    TMP DP  RH WIND       PRES   REMARKS
CARBONDALE     CLOUDY    39  28  64 NW16G29   30.08R WCI  30
CAIRO*         PTCLDY    41  31  67 NW13G23   30.08R
EFFINGHAM*     CLOUDY    35  29  81 NW14      30.03S WCI  25
MARION         CLOUDY    42  32  68 NW5       30.07R
MT. VERNON     MOCLDY    37  27  67 NW8G21    30.05R WCI  31
CENTRALIA*     CLEAR     35  28  74 NW12      30.05R WCI  27
SALEM*         CLOUDY    37  28  72 NW15G22   30.05R WCI  28
METROPOLIS*    PTCLDY    40  32  72 NW8       30.07R
$$

ILZ067-068-072-073-078-083-087-091-190900-
SOUTHEAST ILLINOIS

CITY           SKY/WX    TMP DP  RH WIND       PRES   REMARKS
LAWRENCEVILLE  CLOUDY    39  32  76 NW15      30.00R WCI  31
FLORA*         CLOUDY    37  31  78 NW17      29.91R WCI  28
FAIRFIELD*     PTCLDY    36  29  76 NW6       30.04R WCI  31
HARRISBURG*    CLEAR     38  31  75 NW13G22   30.05R WCI  30
ROBINSON*      CLOUDY    37  32  82 NW16      30.00R WCI  28
CARMI*         MOCLDY    37  31  80 NW16      30.03R WCI  27
$$

ABBREVIATIONS USED IN REMARKS
   TC - TEMPERATURE IN CELSIUS
  WCI - WIND CHILL INDEX
   HX - HEAT INDEX
  VSB - VISIBILITY
$$





USA.gov is the U.S. government's official web portal to all federal, state and local government web resources and services.